K6PZB Graton CA US current weather conditions

sailwx.info

Wind from 222

Air temperature 19.4° C
Dewpoint 12.9° C

Last reported at 2019-Aug-21 04:00 UTC.
Time now 2019-Aug-21 05:13 UTC

Location: N 38°26' W 122°52'.
View on Google Maps.

See reports from other nearby stations

  
Tides and Currents Weather Stations Pressure Air Temp Water Temp Dewpoint Dewpoint Depression Visibility Wind Speed Wind Dir Waves Ship Positions
date/time (UTC)wind fromknots sea level pressurealtimeterstation pressurevisibilityair tempwater tempwave heightnotes
2019-Aug-21 04:00 222 19.4
2019-Aug-21 03:55 223 19.4
2019-Aug-21 03:45 223 20.0
2019-Aug-21 03:35 223 20.6
2019-Aug-21 03:25 222 21.1
2019-Aug-21 03:05 222 21.7
2019-Aug-21 03:00 222 21.7
2019-Aug-21 02:55 222 22.2
2019-Aug-21 02:50 222 22.2
2019-Aug-21 02:40 222 22.2
2019-Aug-21 02:35 222 22.2
2019-Aug-21 02:30 222 22.8
2019-Aug-21 02:20 222 23.3
2019-Aug-21 02:15 214 23.3
2019-Aug-21 01:55 214 24.4
2019-Aug-21 01:50 214 24.4
2019-Aug-21 01:40 214 25.0
2019-Aug-21 01:35 214 25.0
2019-Aug-21 01:25 216 25.6
2019-Aug-21 01:20 218 26.1
2019-Aug-21 01:15 215 26.7
2019-Aug-21 01:05 196 27.2
2019-Aug-21 00:45 233 27.8
2019-Aug-21 00:40 234 27.8
2019-Aug-21 00:30 262 28.3
2019-Aug-21 00:20 293 28.3
2019-Aug-21 00:15 230 28.3
2019-Aug-21 00:00 203 28.3
2019-Aug-20 23:50 210 28.3
2019-Aug-20 23:45 208 0 gusting 4 28.3
2019-Aug-20 23:30 258 28.3
2019-Aug-20 23:15 212 27.2
2019-Aug-20 23:10 189 26.7
2019-Aug-20 23:05 139 26.7
2019-Aug-20 23:00 150 0 gusting 5 26.1
2019-Aug-20 22:55 174 26.1
2019-Aug-20 22:50 174 26.1
2019-Aug-20 22:45 178 26.1
2019-Aug-20 22:40 180 26.1
2019-Aug-20 22:30 214 26.1
2019-Aug-20 22:25 131 0 gusting 5 26.1
2019-Aug-20 22:20 168 26.1
2019-Aug-20 22:15 245 26.1
2019-Aug-20 21:55 219 0 gusting 6 26.7
2019-Aug-20 21:45 156 26.7
2019-Aug-20 21:15 206 0 gusting 4 26.7
2019-Aug-20 21:10 241 26.1
2019-Aug-20 20:50 246 25.0
2019-Aug-20 20:45 128 25.0
2019-Aug-20 20:30 218 0 gusting 3 25.0
2019-Aug-20 20:25 173 0 gusting 2 25.0
2019-Aug-20 20:20 173 24.4
2019-Aug-20 20:10 164 24.4
2019-Aug-20 20:05 214 23.9
2019-Aug-20 20:00 266 23.9
2019-Aug-20 19:55 169 23.3
2019-Aug-20 19:45 143 23.3
2019-Aug-20 19:35 011 23.3
2019-Aug-20 19:20 235 22.8
2019-Aug-20 19:10 211 21.7
2019-Aug-20 19:00 213 21.1
2019-Aug-20 18:55 213 20.6
2019-Aug-20 18:50 192 20.6
2019-Aug-20 18:45 191 20.0
2019-Aug-20 18:20 259 17.8
2019-Aug-20 17:50 256 16.7
2019-Aug-20 17:40 256 16.1
2019-Aug-20 17:30 256 16.1
2019-Aug-20 17:10 299 15.6
2019-Aug-20 17:00 165 15.0
2019-Aug-20 16:45 165 15.0
2019-Aug-20 16:40 165 15.0
2019-Aug-20 16:30 165 15.0
2019-Aug-20 16:15 165 14.4
2019-Aug-20 16:05 165 14.4
2019-Aug-20 15:45 165 14.4
2019-Aug-20 15:40 165 14.4
2019-Aug-20 15:30 165 14.4
2019-Aug-20 15:20 165 14.4
2019-Aug-20 15:15 165 14.4
2019-Aug-20 15:05 165 14.4
2019-Aug-20 15:00 165 14.4
2019-Aug-20 14:55 165 14.4
2019-Aug-20 14:50 165 14.4
2019-Aug-20 14:40 165 14.4
2019-Aug-20 14:30 165 14.4
2019-Aug-20 14:25 165 13.9
2019-Aug-20 14:05 165 13.9
2019-Aug-20 14:00 165 13.9
2019-Aug-20 13:40 165 13.9
2019-Aug-20 13:35 165 13.9
2019-Aug-20 13:30 165 13.9
2019-Aug-20 13:25 165 13.9
2019-Aug-20 13:20 165 13.9
2019-Aug-20 13:10 165 13.9
2019-Aug-20 13:05 165 13.9
2019-Aug-20 13:00 165 13.9
2019-Aug-20 12:35 165 14.4
2019-Aug-20 12:30 165 14.4
2019-Aug-20 12:25 165 14.4
2019-Aug-20 12:20 165 14.4
2019-Aug-20 12:15 165 13.9
2019-Aug-20 12:10 165 13.9
2019-Aug-20 12:05 165 14.4
2019-Aug-20 11:50 165 14.4
2019-Aug-20 11:40 165 14.4
2019-Aug-20 11:35 165 14.4
2019-Aug-20 11:20 165 14.4
2019-Aug-20 11:15 165 14.4
2019-Aug-20 11:10 165 14.4
2019-Aug-20 11:05 165 14.4
2019-Aug-20 11:00 165 14.4
2019-Aug-20 10:55 165 14.4
2019-Aug-20 10:50 165 14.4
2019-Aug-20 10:35 165 14.4
2019-Aug-20 10:30 165 14.4
2019-Aug-20 10:25 165 14.4
2019-Aug-20 10:20 165 14.4
2019-Aug-20 10:15 165 14.4
2019-Aug-20 10:10 165 14.4
2019-Aug-20 10:05 165 14.4
2019-Aug-20 09:40 165 14.4
2019-Aug-20 09:25 165 14.4
2019-Aug-20 09:20 165 14.4
2019-Aug-20 09:00 165 14.4
2019-Aug-20 08:50 165 14.4
2019-Aug-20 08:40 165 14.4
2019-Aug-20 08:35 165 14.4
2019-Aug-20 08:25 165 14.4
2019-Aug-20 08:20 165 14.4
2019-Aug-20 07:55 165 13.9
2019-Aug-20 07:30 165 13.9
2019-Aug-20 07:20 165 13.3
2019-Aug-20 07:15 165 13.3
2019-Aug-20 07:10 165 13.3
2019-Aug-20 06:55 165 13.3
2019-Aug-20 06:50 165 13.9
2019-Aug-20 06:45 165 13.9
2019-Aug-20 06:40 165 13.9
2019-Aug-20 06:25 165 13.9
2019-Aug-20 06:15 165 13.9
2019-Aug-20 06:10 165 13.9
2019-Aug-20 06:00 165 14.4
2019-Aug-20 05:55 165 14.4
2019-Aug-20 05:50 165 14.4
2019-Aug-20 05:45 165 14.4
2019-Aug-20 05:40 165 14.4
2019-Aug-20 05:35 165 15.0
2019-Aug-20 05:30 165 15.0
2019-Aug-20 05:05 165 15.0
2019-Aug-20 04:55 165 15.0
2019-Aug-20 04:40 165 15.6
2019-Aug-20 04:35 165 15.6
2019-Aug-20 04:20 165 15.6
2019-Aug-20 04:15 165 15.6
2019-Aug-20 04:10 165 16.1
2019-Aug-20 04:00 165 16.1
2019-Aug-20 03:55 165 16.1
2019-Aug-20 03:50 165 16.1
2019-Aug-20 03:45 165 16.7
2019-Aug-20 03:35 165 16.7
2019-Aug-20 03:30 165 17.2
2019-Aug-20 03:25 165 17.2
2019-Aug-20 03:20 165 17.2
2019-Aug-20 03:15 165 17.8
2019-Aug-20 03:10 207 17.8
2019-Aug-20 03:05 208 18.3
2019-Aug-20 03:00 208 18.3
2019-Aug-20 02:55 208 18.3
2019-Aug-20 02:40 207 19.4
2019-Aug-20 02:15 215 20.6
2019-Aug-20 02:00 183 21.1
2019-Aug-20 01:55 172 21.1
2019-Aug-20 01:50 172 21.1
2019-Aug-20 01:40 172 21.7
2019-Aug-20 01:30 169 22.2
2019-Aug-20 01:20 195 23.3
2019-Aug-20 01:15 226 23.3
2019-Aug-20 01:10 195 23.3
2019-Aug-20 01:05 183 23.3
2019-Aug-20 01:00 166 23.9
2019-Aug-20 00:55 141 23.9
2019-Aug-20 00:50 154 24.4
2019-Aug-20 00:45 155 24.4
2019-Aug-20 00:40 158 25.0
2019-Aug-20 00:30 226 25.6
2019-Aug-20 00:20 226 25.6
2019-Aug-20 00:15 226 25.6
2019-Aug-20 00:05 238 0 gusting 3 26.1
2019-Aug-20 00:00 207 26.1
2019-Aug-19 23:45 215 25.6
2019-Aug-19 23:40 223 25.6
2019-Aug-19 23:35 206 26.1
2019-Aug-19 23:20 224 26.1
2019-Aug-19 23:15 216 25.6
2019-Aug-19 23:10 215 25.6
2019-Aug-19 23:05 160 25.6
2019-Aug-19 22:55 210 25.6
2019-Aug-19 22:50 213 25.6
2019-Aug-19 22:45 222 26.1
2019-Aug-19 22:35 220 26.1
2019-Aug-19 22:30 203 26.1
2019-Aug-19 22:25 214 0 gusting 5 26.1
2019-Aug-19 22:15 169 25.6
2019-Aug-19 22:10 198 25.6
2019-Aug-19 21:50 240 26.1
2019-Aug-19 21:40 221 0 gusting 6 26.1
2019-Aug-19 21:35 197 26.1
2019-Aug-19 21:30 209 0 gusting 5 25.6
2019-Aug-19 21:20 206 25.6
2019-Aug-19 21:10 230 25.0
2019-Aug-19 20:55 237 23.9
2019-Aug-19 20:40 225 23.3
2019-Aug-19 20:15 243 21.7
2019-Aug-19 20:10 228 21.1
2019-Aug-19 20:00 191 20.6
2019-Aug-19 19:40 167 18.9
2019-Aug-19 19:30 167 18.9
2019-Aug-19 19:25 200 0 gusting 3 18.9
2019-Aug-19 19:20 229 18.3
2019-Aug-19 18:50 228 17.8
2019-Aug-19 18:45 229 17.8
2019-Aug-19 18:25 229 17.2
2019-Aug-19 18:20 229 16.7
2019-Aug-19 18:15 229 16.7
2019-Aug-19 18:10 229 16.7
2019-Aug-19 18:00 219 16.7
2019-Aug-19 17:55 219 16.1
2019-Aug-19 17:50 223 16.1
2019-Aug-19 17:45 223 16.1
2019-Aug-19 17:40 223 16.1
2019-Aug-19 17:35 223 16.1
2019-Aug-19 17:30 223 15.6
2019-Aug-19 17:25 223 15.6
2019-Aug-19 17:20 224 15.6
2019-Aug-19 17:15 226 15.6
2019-Aug-19 17:10 226 15.6
2019-Aug-19 16:55 226 15.0
2019-Aug-19 16:35 226 15.0
2019-Aug-19 16:30 226 15.0
2019-Aug-19 16:25 226 15.0
2019-Aug-19 16:15 226 14.4
2019-Aug-19 16:10 226 14.4
2019-Aug-19 16:05 226 14.4
2019-Aug-19 16:00 226 14.4
2019-Aug-19 15:55 226 14.4
2019-Aug-19 15:50 226 14.4
2019-Aug-19 15:40 226 14.4
2019-Aug-19 15:30 226 13.9
2019-Aug-19 15:25 226 13.9
2019-Aug-19 15:20 226 13.9
2019-Aug-19 15:15 226 13.9
2019-Aug-19 15:10 226 13.9
2019-Aug-19 15:05 226 13.9
2019-Aug-19 14:55 226 13.9
2019-Aug-19 14:50 226 13.9
2019-Aug-19 14:35 226 13.9
2019-Aug-19 14:25 226 13.9
2019-Aug-19 14:20 226 13.9
2019-Aug-19 14:15 226 13.9
2019-Aug-19 14:10 226 13.9
2019-Aug-19 14:00 226 13.9
2019-Aug-19 13:55 226 13.9
2019-Aug-19 13:45 226 13.9
2019-Aug-19 13:40 226 13.9
2019-Aug-19 13:35 226 13.9
2019-Aug-19 13:20 226 13.9
2019-Aug-19 13:15 226 13.9
2019-Aug-19 13:10 226 13.9
2019-Aug-19 13:05 226 13.9
2019-Aug-19 13:00 226 13.9
2019-Aug-19 12:45 226 13.9
2019-Aug-19 12:40 226 13.9
2019-Aug-19 12:35 226 13.9
2019-Aug-19 12:20 226 13.9
2019-Aug-19 12:10 226 13.9
2019-Aug-19 11:50 226 13.9
2019-Aug-19 11:45 226 13.9
2019-Aug-19 11:40 226 13.9
2019-Aug-19 11:35 226 13.9
2019-Aug-19 11:25 226 13.9
2019-Aug-19 11:05 226 13.9
2019-Aug-19 10:40 226 13.9
2019-Aug-19 10:35 226 13.9
2019-Aug-19 10:30 226 13.9
2019-Aug-19 10:20 226 13.9
2019-Aug-19 10:10 226 14.4
2019-Aug-19 10:00 226 14.4
2019-Aug-19 09:55 226 14.4
2019-Aug-19 09:45 226 14.4
2019-Aug-19 09:40 226 14.4
2019-Aug-19 09:35 226 14.4
2019-Aug-19 09:30 226 14.4
2019-Aug-19 09:20 226 14.4
2019-Aug-19 09:15 226 14.4
2019-Aug-19 09:10 226 14.4
2019-Aug-19 09:05 226 14.4
2019-Aug-19 08:55 226 14.4
2019-Aug-19 08:30 226 14.4
2019-Aug-19 08:25 226 14.4
2019-Aug-19 08:15 226 14.4
2019-Aug-19 08:10 226 14.4
2019-Aug-19 08:05 226 14.4
2019-Aug-19 08:00 226 14.4
2019-Aug-19 07:35 225 14.4
2019-Aug-19 07:30 226 14.4
2019-Aug-19 07:20 226 14.4
2019-Aug-19 07:10 226 14.4
2019-Aug-19 07:00 226 14.4
2019-Aug-19 06:55 226 14.4
2019-Aug-19 06:50 226 14.4
2019-Aug-19 06:45 225 14.4
2019-Aug-19 06:40 226 14.4
2019-Aug-19 06:35 226 14.4
2019-Aug-19 06:30 226 15.0
2019-Aug-19 06:25 226 15.0
2019-Aug-19 06:20 226 15.0
2019-Aug-19 06:15 226 15.0
2019-Aug-19 06:10 226 15.0
2019-Aug-19 06:05 226 14.4
2019-Aug-19 05:55 226 15.0
2019-Aug-19 05:50 226 15.0
2019-Aug-19 05:45 225 15.0
2019-Aug-19 05:35 213 15.0
2019-Aug-19 05:30 218 15.0
2019-Aug-19 05:20 225 15.0
2019-Aug-19 05:10 240 15.0
2019-Aug-19 05:05 240 15.0